sat.trackr.live / text

‹ back to catalog

STARLINK-31935

NORAD 59876 · 2024-098U

PAYLOAD ACTIVE UNKNOWN

§ Identity

Operator
Country
US
Launch date
2024-05-24
Launch site
AFETR
Launch vehicle
Mass (kg)
RCS (m²)

Purposes: comms

External: N2YO · Heavens-Above · Gunter

§ Orbital elements

Epoch: 2026-09-21T15:41:06.052128Z

Period
94.27 min
Inclination
43.0011°
Eccentricity
0.0001080
Mean motion
15.27557958 rev/d
Perigee alt
482.4 km
Apogee alt
483.9 km
Semi-major
6,861.3 km
B*
1.7486e-4
RAAN
251.5215°
Arg perigee
256.7499°
Mean anomaly
103.3232°
Rev number
13,181

§ Raw data

STARLINK-319351 59876U 24098U   26264.65354227  .00004550  00000+0  17486-3 0  99942 59876  43.0011 251.5215 0001080 256.7499 103.3232 15.27557958131810

JSON: /api/v1/satellites/59876 · /tle

For live sub-satellite position, see the globe view (requires WebGL).

§ Visibility from observer

Set your observer location to see the next 7 days of passes ≥ 10°. The values pass through the URL so the page stays shareable.

No JS? Fill the form by hand. The geolocation button needs JavaScript.